Flag for Germany Weather past 2 weeks in Schloss Holte-Stukenbrock, North Rhine-Westphalia, Germany

Now
65 °F

Sunny.


Feels Like: 65 °F
Forecast: 50 / 56 °F
Wind: 7 mph from East

Location: Bad Lippspringe


UV Index: 0 (Low)

Visibility: 13 mi


Pressure: 29.74 "Hg

Humidity: 40%

Dew point: 40 °F

Location of Schloss Holte-StukenbrockLocation

Historic Weather in Schloss Holte-Stukenbrock

°F

Schloss Holte-Stukenbrock temperature yesterday

Maximum temperature yesterday: 59 °F (at 6:00 PM)
Minimum temperature yesterday: 34 °F (at 6:00 AM)
Average temperature yesterday: 48 °F

Past Weeks' High & Low Weather Summary

 TemperatureHumidityPressure
High68 °F (Apr 7, 5:00 PM)99% (Apr 6, 8:00 AM)30.47 "Hg (Apr 6, 8:00 AM)
Low28 °F (Apr 16, 7:00 AM)34% (Apr 17, 4:00 PM)29.74 "Hg (Apr 20, 7:00 PM)
Average49 °F75%30.07 "Hg
* Reported Apr 5 7:00 PM — Apr 20 7:00 PM, Schloss Holte-Stukenbrock, Weather by CustomWeather, © 2014

Note: Actual official high and low records may vary slightly from our data, if they occured in-between our weather recording intervals... More about our weather records

Advertising

Historic Weather Conditions — Data for Previous 24 hours

 ConditionsComfort  
Time TempWeatherWind HumidityBarometerVisibility
7:00 PM
Apr 20
65 °FSunny.7 mph40%29.74 "Hg13 mi
6:00 PM66 °FPassing clouds.6 mph41%29.74 "Hg19 mi
5:00 PM67 °FPassing clouds.6 mph42%29.75 "Hg11 mi
4:00 PM66 °FScattered clouds.7 mph45%29.76 "Hg9 mi
3:00 PM65 °FPassing clouds.9 mph48%29.77 "Hg13 mi
2:00 PM64 °FPassing clouds.10 mph54%29.78 "Hg6 mi
1:00 PM61 °FOvercast.7 mph64%29.80 "Hg9 mi
12:00 PM61 °FScattered clouds.5 mph64%29.79 "Hg11 mi
11:00 AM61 °FSunny.7 mph63%29.82 "Hg7 mi
10:00 AM58 °FSunny.5 mph70%29.83 "Hg6 mi
9:00 AM54 °FPassing clouds.3 mph80%29.84 "Hg4 mi
8:00 AM51 °FFog.5 mph85%29.85 "Hg4 mi
7:00 AM51 °FFog.5 mph85%29.85 "Hg4 mi
6:00 AM52 °FFog.7 mph82%29.84 "Hg4 mi
5:00 AM54 °FPassing clouds.8 mph79%29.86 "Hg5 mi
4:00 AM53 °FFog.7 mph81%29.87 "Hg4 mi
3:00 AM53 °FFog.6 mph84%29.89 "Hg4 mi
2:00 AM54 °FFog.6 mph81%29.91 "Hg4 mi
1:00 AM55 °FPassing clouds.7 mph79%29.92 "Hg4 mi
12:00 AM56 °FOvercast.6 mph77%29.93 "Hg4 mi
11:00 PM
Apr 19
57 °FPassing clouds.7 mph74%29.94 "Hg5 mi
10:00 PM56 °FClear.7 mph74%29.95 "Hg6 mi
9:00 PM55 °FClear.6 mph75%29.96 "Hg6 mi
8:00 PM57 °FPassing clouds.6 mph71%29.97 "Hg7 mi
Weather by CustomWeather, © 2014

See weather overview